Tulsa Jones, OK

5:55 PM CDT on March 24, 2017 (GMT -0500)
Jones Jr.

Weather History for KRVS - December, 2013

Change the Weather History Date:

Monday, December 30, 2013

  Actual Average (KTUL) Record (KTUL)
Temperature  
Mean Temperature 27 °F -  
Max Temperature 39 °F 42 °F 77 °F (1951)
Min Temperature 15 °F 24 °F 2 °F (1983)
Degree Days  
Heating Degree Days 38    
Moisture  
Dew Point 10 °F    
Average Humidity 55    
Maximum Humidity 78    
Minimum Humidity 35    
Precipitation  
Precipitation 0.00 in - - ()
Sea Level Pressure  
Sea Level Pressure 30.36 in    
Wind  
Wind Speed 4 mph (NNE)    
Max Wind Speed 9 mph    
Max Gust Speed -    
Visibility 10 miles    
Events      
Averages and records for this station are not official NWS values.
T = Trace of Precipitation, MM = Missing Value Source: NWS Daily Summary

Daily Weather History Graph

Daily Weather History Graph

Search for Another Location

Airport or City:

Trip Planner

Search our weather history database for the weather conditions in past years. The results will help you decide how hot, cold, wet, or windy it might be!

Date:

Astronomy

Dec. 30, 2013 Rise Set
Actual Time 7:34 AM CST 5:19 PM CST
Civil Twilight 7:05 AM CST 5:47 PM CST
Nautical Twilight 6:33 AM CST 6:19 PM CST
Astronomical Twilight 6:02 AM CST 6:50 PM CST
Moon 5:26 AM CST (12/30) 3:52 PM CST (12/30)
Length of Visible Light 10h 41m
Length of Day
9h 44m
Waning Crescent, 4% of the Moon is Illuminated
Dec 30
Waning Crescent
Jan 1
New
Jan 7
First Quarter
Jan 15
Full
Jan 23
Last Quarter

Hourly Weather History & Observations

Time (CST) Temp. Windchill Dew Point Humidity Pressure Visibility Wind Dir Wind Speed Gust Speed Precip Events Conditions
12:53 AM 21.0 °F 14.6 °F 3.0 °F 46% 30.35 in 10.0 mi North 4.6 mph - N/A   Clear
1:53 AM 21.0 °F 11.4 °F 3.0 °F 46% 30.35 in 10.0 mi North 8.1 mph - N/A   Clear
2:53 AM 19.9 °F 13.4 °F 3.0 °F 48% 30.35 in 10.0 mi North 4.6 mph - N/A   Clear
3:53 AM 19.9 °F 10.1 °F 3.0 °F 48% 30.35 in 10.0 mi North 8.1 mph - N/A   Clear
4:53 AM 18.0 °F 9.8 °F 3.9 °F 54% 30.35 in 10.0 mi North 5.8 mph - N/A   Clear
5:53 AM 17.1 °F 5.8 °F 3.9 °F 56% 30.36 in 10.0 mi NNE 9.2 mph - N/A   Clear
6:53 AM 15.1 °F 6.4 °F 5.0 °F 64% 30.34 in 10.0 mi NE 5.8 mph - N/A   Clear
7:53 AM 16.0 °F - 6.1 °F 65% 30.36 in 10.0 mi Calm Calm - N/A   Clear
8:53 AM 19.9 °F 13.4 °F 7.0 °F 57% 30.35 in 10.0 mi ENE 4.6 mph - N/A   Clear
9:53 AM 21.9 °F - 9.0 °F 58% 30.37 in 10.0 mi Calm Calm - N/A   Clear
10:53 AM 26.1 °F - 10.0 °F 51% 30.38 in 10.0 mi Calm Calm - N/A   Clear
11:53 AM 30.0 °F - 10.9 °F 45% 30.37 in 10.0 mi Calm Calm - N/A   Clear
12:53 PM 33.1 °F 28.7 °F 12.9 °F 43% 30.31 in 10.0 mi Variable 4.6 mph - N/A   Clear
1:53 PM 35.1 °F - 12.9 °F 40% 30.30 in 10.0 mi Calm Calm - N/A   Clear
2:53 PM 37.9 °F - 14.0 °F 38% 30.29 in 10.0 mi Calm Calm - N/A   Clear
3:53 PM 39.9 °F 36.7 °F 14.0 °F 35% 30.30 in 10.0 mi South 4.6 mph - N/A   Clear
4:53 PM 37.9 °F 35.5 °F 14.0 °F 38% 30.31 in 10.0 mi SW 3.5 mph - N/A   Clear
5:53 PM 32.0 °F - 16.0 °F 52% 30.35 in 10.0 mi Calm Calm - N/A   Clear
6:53 PM 27.0 °F - 17.1 °F 66% 30.38 in 10.0 mi Calm Calm - N/A   Clear
7:53 PM 27.0 °F - 16.0 °F 63% 30.40 in 10.0 mi Calm Calm - N/A   Clear
8:53 PM 25.0 °F - 17.1 °F 72% 30.41 in 10.0 mi Calm Calm - N/A   Clear
9:53 PM 23.0 °F - 16.0 °F 74% 30.41 in 10.0 mi Calm Calm - N/A   Clear
10:53 PM 23.0 °F - 17.1 °F 78% 30.42 in 10.0 mi Calm Calm - N/A   Clear
11:53 PM 23.0 °F - 16.0 °F 74% 30.42 in 10.0 mi Calm Calm - N/A   Clear